When you browse on this site, cookies collect data to enhance your experience and personalize the content and advertising you see.
Visit our Privacy Policy to learn more. By continuing to use the site, you agree to this use of cookies and data.
  • In Czech Republic
  • List of Countries
  • For 7 days
  • Water Temperature
  • Satellite Maps
  • Weather Map
  • Weather Widgets
  • user-avatar
    Login

    Hourly Weather Jinan

    Today, 24 January, Thursday

    Time Temperature Precipitation Wind Pressure Humidity
    00:00 +6°C° 0 mm 1 mps 763 mmHg 28%
    01:00 +5°C° 0 mm 1 mps 763 mmHg 29%
    02:00 +5°C° 0 mm 1 mps 763 mmHg 30%
    03:00 +5°C° 0 mm 1 mps 763 mmHg 31%
    04:00 +5°C° 0 mm 1 mps 763 mmHg 32%
    05:00 +3°C° 0 mm 2 mps 763 mmHg 33%
    06:00 +3°C° 0 mm 2 mps 763 mmHg 34%
    07:00 +3°C° 0 mm 2 mps 763 mmHg 35%
    08:00 +3°C° 0 mm 3 mps 763 mmHg 34%
    09:00 +5°C° 0 mm 3 mps 763 mmHg 30%
    10:00 +8°C° 0 mm 3 mps 763 mmHg 26%
    11:00 +10°C° 0 mm 3 mps 763 mmHg 23%
    12:00 +10°C° 0 mm 3 mps 763 mmHg 22%
    13:00 +11°C° 0 mm 3 mps 763 mmHg 22%
    14:00 +12°C° 0 mm 3 mps 762 mmHg 22%
    15:00 +11°C° 0 mm 3 mps 762 mmHg 24%
    16:00 +12°C° 0 mm 2 mps 762 mmHg 27%
    17:00 +11°C° 0 mm 1 mps 762 mmHg 29%
    18:00 +10°C° 0 mm 1 mps 762 mmHg 30%
    19:00 +10°C° 0 mm 1 mps 762 mmHg 31%
    20:00 +9°C° 0 mm 1 mps 763 mmHg 32%
    21:00 +8°C° 0 mm 1 mps 763 mmHg 33%
    22:00 +7°C° 0 mm 2 mps 764 mmHg 34%
    23:00 +6°C° 0 mm 2 mps 764 mmHg 35%

    Tomorrow, 25 January, Friday

    Time Temperature Precipitation Wind Pressure Humidity
    00:00 +4°C° 0 mm 3 mps 765 mmHg 40%
    01:00 +3°C° 0 mm 4 mps 765 mmHg 46%
    02:00 +3°C° 0 mm 4 mps 766 mmHg 51%
    03:00 +1°C° 0 mm 5 mps 766 mmHg 54%
    04:00 +1°C° 0 mm 5 mps 767 mmHg 58%
    05:00 +1°C° 0 mm 6 mps 767 mmHg 61%
    06:00 -1°C° 0 mm 6 mps 768 mmHg 55%
    07:00 -1°C° 0 mm 6 mps 768 mmHg 49%
    08:00 -2°C° 0 mm 6 mps 769 mmHg 44%
    09:00 -1°C° 0 mm 6 mps 770 mmHg 40%
    10:00 +1°C° 0 mm 6 mps 771 mmHg 36%
    11:00 +1°C° 0 mm 6 mps 771 mmHg 32%
    12:00 +2°C° 0 mm 6 mps 771 mmHg 31%
    13:00 +2°C° 0 mm 6 mps 771 mmHg 29%
    14:00 +2°C° 0 mm 5 mps 771 mmHg 27%
    15:00 +2°C° 0 mm 5 mps 771 mmHg 27%
    16:00 +1°C° 0 mm 4 mps 771 mmHg 27%
    17:00 +1°C° 0 mm 4 mps 771 mmHg 27%
    18:00 0°C° 0 mm 4 mps 772 mmHg 29%
    19:00 0°C° 0 mm 3 mps 772 mmHg 31%
    20:00 -1°C° 0 mm 3 mps 772 mmHg 32%
    21:00 -1°C° 0 mm 2 mps 773 mmHg 33%
    22:00 0°C° 0 mm 1 mps 773 mmHg 35%
    23:00 0°C° 0 mm 1 mps 773 mmHg 36%

    Day after tomorrow, 26 January, Saturday

    Time Temperature Precipitation Wind Pressure Humidity
    00:00 0°C° 0 mm 1 mps 773 mmHg 35%
    01:00 -2°C° 0 mm 0 mps 773 mmHg 35%
    02:00 -2°C° 0 mm 0 mps 773 mmHg 34%
    03:00 -2°C° 0 mm 0 mps 773 mmHg 33%
    04:00 -2°C° 0 mm 0 mps 773 mmHg 32%
    05:00 -2°C° 0 mm 1 mps 773 mmHg 32%
    06:00 -3°C° 0 mm 0 mps 773 mmHg 30%
    07:00 -3°C° 0 mm 0 mps 773 mmHg 29%
    08:00 -2°C° 0 mm 0 mps 773 mmHg 28%
    09:00 -1°C° 0 mm 0 mps 773 mmHg 24%
    10:00 +1°C° 0 mm 0 mps 773 mmHg 20%
    11:00 +2°C° 0 mm 0 mps 774 mmHg 16%
    12:00 +4°C° 0 mm 1 mps 773 mmHg 15%
    13:00 +5°C° 0 mm 1 mps 772 mmHg 14%
    14:00 +6°C° 0 mm 1 mps 771 mmHg 13%
    15:00 +4°C° 0 mm 0 mps 771 mmHg 14%
    16:00 +4°C° 0 mm 0 mps 770 mmHg 16%
    17:00 +4°C° 0 mm 0 mps 770 mmHg 17%
    18:00 +3°C° 0 mm 0 mps 770 mmHg 18%
    19:00 +3°C° 0 mm 1 mps 770 mmHg 19%
    20:00 +2°C° 0 mm 1 mps 769 mmHg 21%
    21:00 +2°C° 0 mm 1 mps 769 mmHg 23%
    22:00 +1°C° 0 mm 2 mps 769 mmHg 25%
    23:00 +1°C° 0 mm 2 mps 769 mmHg 26%

    27 January, Sunday

    Time Temperature Precipitation Wind Pressure Humidity
    00:00 +1°C° 0 mm 2 mps 768 mmHg 27%
    01:00 +1°C° 0 mm 2 mps 768 mmHg 28%
    02:00 0°C° 0 mm 3 mps 768 mmHg 29%
    03:00 0°C° 0 mm 3 mps 767 mmHg 29%
    04:00 0°C° 0 mm 3 mps 766 mmHg 29%
    05:00 0°C° 0 mm 3 mps 766 mmHg 29%
    06:00 0°C° 0 mm 3 mps 766 mmHg 29%
    07:00 -1°C° 0 mm 4 mps 766 mmHg 28%
    08:00 -1°C° 0 mm 4 mps 766 mmHg 28%
    09:00 0°C° 0 mm 4 mps 766 mmHg 27%
    10:00 +2°C° 0 mm 5 mps 766 mmHg 25%
    11:00 +3°C° 0 mm 5 mps 766 mmHg 24%
    12:00 +3°C° 0 mm 5 mps 765 mmHg 24%
    13:00 +3°C° 0 mm 5 mps 765 mmHg 25%
    14:00 +5°C° 0 mm 5 mps 764 mmHg 25%
    15:00 +4°C° 0 mm 4 mps 764 mmHg 28%
    16:00 +4°C° 0 mm 4 mps 763 mmHg 31%
    17:00 +4°C° 0 mm 3 mps 763 mmHg 34%
    18:00 +3°C° 0 mm 3 mps 763 mmHg 36%
    19:00 +4°C° 0 mm 2 mps 764 mmHg 38%
    20:00 +3°C° 0 mm 2 mps 764 mmHg 40%
    21:00 +3°C° 0 mm 2 mps 765 mmHg 40%
    22:00 +3°C° 0 mm 1 mps 765 mmHg 40%
    23:00 +3°C° 0 mm 1 mps 765 mmHg 41%

    28 January, Monday

    Time Temperature Precipitation Wind Pressure Humidity
    00:00 +3°C° 0 mm 1 mps 765 mmHg 41%
    01:00 +1°C° 0 mm 0 mps 765 mmHg 42%
    02:00 +1°C° 0 mm 0 mps 765 mmHg 42%
    03:00 +1°C° 0 mm 0 mps 765 mmHg 43%
    04:00 +2°C° 0 mm 1 mps 765 mmHg 43%
    05:00 +1°C° 0 mm 1 mps 765 mmHg 43%
    06:00 +1°C° 0 mm 1 mps 766 mmHg 41%
    07:00 +1°C° 0 mm 1 mps 766 mmHg 38%
    08:00 +1°C° 0 mm 1 mps 767 mmHg 36%
    09:00 +3°C° 0 mm 1 mps 767 mmHg 30%
    10:00 +5°C° 0 mm 1 mps 767 mmHg 24%
    11:00 +7°C° 0 mm 1 mps 768 mmHg 18%
    12:00 +8°C° 0 mm 1 mps 767 mmHg 17%
    13:00 +9°C° 0 mm 1 mps 766 mmHg 16%
    14:00 +10°C° 0 mm 1 mps 765 mmHg 15%
    15:00 +10°C° 0 mm 1 mps 765 mmHg 17%
    16:00 +9°C° 0 mm 1 mps 764 mmHg 19%
    17:00 +8°C° 0 mm 2 mps 764 mmHg 21%
    18:00 +7°C° 0 mm 2 mps 764 mmHg 23%
    19:00 +7°C° 0 mm 2 mps 764 mmHg 25%
    20:00 +6°C° 0 mm 2 mps 764 mmHg 26%
    21:00 +5°C° 0 mm 3 mps 764 mmHg 28%
    22:00 +5°C° 0 mm 3 mps 764 mmHg 29%
    23:00 +4°C° 0 mm 3 mps 764 mmHg 30%

    29 January, Tuesday

    Time Temperature Precipitation Wind Pressure Humidity
    00:00 +4°C° 0 mm 4 mps 763 mmHg 31%
    01:00 +4°C° 0 mm 4 mps 763 mmHg 32%
    02:00 +4°C° 0 mm 4 mps 762 mmHg 33%
    03:00 +3°C° 0 mm 4 mps 762 mmHg 35%
    04:00 +3°C° 0 mm 4 mps 762 mmHg 38%
    05:00 +3°C° 0 mm 4 mps 761 mmHg 40%
    06:00 +3°C° 0 mm 4 mps 762 mmHg 43%
    07:00 +2°C° 0 mm 5 mps 762 mmHg 45%
    08:00 +2°C° 0 mm 5 mps 762 mmHg 48%
    09:00 +3°C° 0 mm 5 mps 762 mmHg 47%
    10:00 +6°C° 0 mm 5 mps 762 mmHg 45%
    11:00 +7°C° 0 mm 5 mps 762 mmHg 44%
    12:00 +8°C° 0 mm 5 mps 761 mmHg 43%
    13:00 +9°C° 0 mm 5 mps 760 mmHg 42%
    14:00 +10°C° 0 mm 5 mps 760 mmHg 41%
    15:00 +11°C° 0 mm 4 mps 760 mmHg 41%
    16:00 +10°C° 0 mm 3 mps 760 mmHg 42%
    17:00 +10°C° 0 mm 2 mps 760 mmHg 42%
    18:00 +9°C° 0 mm 3 mps 760 mmHg 46%
    19:00 +9°C° 0 mm 3 mps 760 mmHg 50%
    20:00 +8°C° 0 mm 3 mps 761 mmHg 54%
    21:00 +7°C° 0 mm 3 mps 761 mmHg 56%
    22:00 +7°C° 0 mm 2 mps 761 mmHg 58%
    23:00 +6°C° 0 mm 2 mps 761 mmHg 61%
    Show more